Home > Weather > Hommelvik > Past weeks

Flag for Norway Past Weather in Hommelvik, Norway — Yesterday and Last 2 Weeks

Now
58 °F

Passing clouds.


Feels Like: 58 °F
Forecast: 56 / 71 °F
Wind: 1 mph from Southeast

Location: Trondheim / Vaernes

Current Time: Jun 26, 2016 at 10:24:20 AM

Latest Report: Jun 26, 2016 at 9:00 AM


Visibility: 16 mi

Pressure: 29.96 "Hg

Humidity: 81%

Dew Point: 52 °F

Location of HommelvikLocation

Past Weather in Hommelvik — Graph

°F

Hommelvik Temperature Yesterday

Maximum temperature yesterday: 62 °F (at 12:00 AM)
Minimum temperature yesterday: 54 °F (at 11:00 AM)
Average temperature yesterday: 57 °F

High & Low Weather Summary for the Past Weeks

 TemperatureHumidityPressure
High72 °F (Jun 20, 4:00 PM)96% (Jun 19, 2:00 AM)30.11 "Hg (Jun 19, 2:00 AM)
Low40 °F (Jun 14, 4:00 AM)31% (Jun 20, 3:00 PM)29.62 "Hg (Jun 15, 6:00 PM)
Average55 °F75%29.89 "Hg
* Reported Jun 11 11:00 AM — Jun 26 9:00 AM, Hommelvik, Weather by CustomWeather, © 2016

Note: Actual official high and low records may vary slightly from our data, if they occured in-between our weather recording intervals... More about our weather records

Advertising

Hommelvik Weather History for the Previous 24 Hours

Scroll right to see more
 ConditionsComfort  
Time TempWeatherWind HumidityBarometerVisibility
9:00 AM
Sun, Jun 26
58 °FPassing clouds.1 mph81%29.96 "Hg16 mi
8:00 AM55 °FOvercast.2 mph87%29.99 "Hg15 mi
7:00 AM54 °FOvercast.2 mph89%30.01 "Hg14 mi
6:00 AM53 °FOvercast.2 mph89%30.03 "Hg14 mi
5:00 AMN/AOvercast.N/AN/AN/A9 mi
3:00 AM52 °FOvercast.1 mph93%30.08 "Hg11 mi
2:00 AM51 °FOvercast.1 mph93%30.09 "Hg11 mi
1:00 AM51 °FClear.1 mph92%30.10 "Hg10 mi
12:00 AM53 °FPassing clouds.2 mph85%30.10 "Hg17 mi
11:00 PM
Sat, Jun 25
54 °FPartly sunny.3 mph83%30.11 "Hg22 mi
10:00 PM56 °FOvercast.5 mph79%30.10 "Hg19 mi
9:00 PM56 °FPartly sunny.5 mph79%30.10 "Hg19 mi
8:00 PM58 °FSunny.5 mph79%30.10 "Hg17 mi
7:00 PM58 °FPassing clouds.5 mph75%30.10 "Hg19 mi
6:00 PM58 °FOvercast.5 mph72%30.10 "Hg19 mi
5:00 PM57 °FOvercast.6 mph77%30.10 "Hg19 mi
4:00 PM56 °FOvercast.7 mph80%30.10 "Hg16 mi
3:00 PM55 °FOvercast.7 mph82%30.09 "Hg11 mi
2:00 PM55 °FOvercast.9 mph83%30.10 "Hg13 mi
1:00 PM55 °FOvercast.7 mph84%30.08 "Hg12 mi
12:00 PM54 °FOvercast.10 mph84%30.06 "Hg14 mi
11:00 AM54 °FOvercast.12 mph85%30.04 "Hg12 mi
10:00 AM54 °FLow clouds.12 mph88%30.02 "Hg12 mi
Weather by CustomWeather, © 2016

See weather overviewHow to use our weather pages